This is the latest recevied weather packets stored in our database for station/object DH9NFM-12. If no packets are shown the sender has not sent any weather packets the latest 1 day(s).
| Time | Temp. | Humidity | Pressure | Rain* | Wind** | Luminosity | Snow |
|---|---|---|---|---|---|---|---|
| 1777998176 | 15° C | 10% | - | 0 mm | 0.45 m/s, 45° | - | - |
| 1777997551 | 15° C | 10% | - | 0 mm | 0.89 m/s, 45° | - | - |
| 1777996926 | 15° C | 10% | - | 0 mm | 0.45 m/s, 90° | - | - |
| 1777996301 | 15° C | 10% | - | 0 mm | 0.45 m/s, 45° | - | - |
| 1777995677 | 15° C | 10% | - | 0 mm | 0.89 m/s, 45° | - | - |
| 1777994427 | 15° C | 10% | - | 1.27 mm | 0.45 m/s, 0° | - | - |
| 1777993802 | 15° C | 10% | - | 1.27 mm | 0.45 m/s, 45° | - | - |
| 1777992553 | 14.44° C | 10% | - | 1.27 mm | 0.45 m/s, 135° | - | - |
| 1777991928 | 15.56° C | 10% | - | 0.76 mm | 1.79 m/s, 45° | - | - |
| 1777990678 | 17.78° C | 91% | 1005.7 hPa | 0 mm | 0.89 m/s, 45° | - | - |
| 1777990054 | 17.78° C | 89% | 1005.8 hPa | 0 mm | 0.89 m/s, 45° | - | - |
| 1777989429 | 17.78° C | 88% | 1006 hPa | 0 mm | 0.89 m/s, 45° | - | - |
| 1777988804 | 17.78° C | 86% | 1006.1 hPa | 0 mm | 1.34 m/s, 90° | - | - |
| 1777988180 | 18.33° C | 84% | 1006.2 hPa | 0 mm | 0.45 m/s, 45° | - | - |
| 1777987555 | 18.33° C | 83% | 1006.2 hPa | 0 mm | 0.45 m/s, 180° | - | - |
| 1777986930 | 18.89° C | 81% | 1006.3 hPa | 0 mm | 0.45 m/s, 0° | - | - |
| 1777986306 | 21.11° C | 78% | 1006.3 hPa | 0 mm | 0.45 m/s, 45° | - | - |
| 1777985056 | 20.56° C | 75% | 1006.4 hPa | 0 mm | 0.89 m/s, 45° | - | - |
| 1777984432 | 20° C | 78% | 1006.5 hPa | 0 mm | 0.89 m/s, 90° | - | - |
| 1777983807 | 19.44° C | 79% | 1006.6 hPa | 0 mm | 0.89 m/s, 45° | - | - |
| 1777983183 | 20° C | 72% | 1006.7 hPa | 0 mm | 0.45 m/s, 90° | - | - |
| 1777982558 | 21.11° C | 72% | 1006.7 hPa | 0 mm | 0.89 m/s, 90° | - | - |
| 1777981933 | 20° C | 71% | 1006.8 hPa | 0 mm | 0.89 m/s, 45° | - | - |
| 1777981309 | 18.89° C | 74% | 1006.9 hPa | 0 mm | 0.45 m/s, 45° | - | - |
| 1777980684 | 19.44° C | 72% | 1006.9 hPa | 0 mm | 0.45 m/s, 45° | - | - |
* Rain latest hour (hover to see other rain measurements)
** Current wind speed in m/s (hover to see current wind gust speed)